START_TIME,STEP,MOV.,AL01,t_acc.,AL02,t_acc.,E37,t_acc.,H21,t_acc.
1979-07-29 00:00:33.450 ,0,0,0.,24.0,0.,24.0,2.,24.0,0.,24.0
1979-07-29 00:00:57.450 ,1,1,0.,24.0,0.,24.0,3.,24.0,0.,24.0
1979-07-29 00:01:21.450 ,1,0,0.,24.0,0.,24.0,5.,24.0,0.,24.0
1979-07-29 00:01:45.450 ,2,1,0.,24.0,0.,24.0,1.,24.0,0.,24.0
1979-07-29 00:02:09.450 ,2,0,0.,24.0,0.,24.0,0.,24.0,0.,24.0
1979-07-29 00:02:33.450 ,3,1,0.,24.0,0.,24.0,2.,24.0,0.,24.0
1979-07-29 00:02:57.450 ,3,0,0.,24.0,0.,24.0,4.,24.0,0.,24.0
1979-07-29 00:03:21.450 ,4,1,0.,24.0,0.,24.0,1.,24.0,0.,24.0
1979-07-29 00:03:45.450 ,4,0,0.,24.0,0.,24.0,1.,24.0,0.,24.0
1979-07-29 00:04:09.450 ,5,1,0.,24.0,0.,24.0,3.,24.0,0.,24.0
1979-07-29 00:04:33.450 ,5,0,0.,24.0,0.,24.0,3.,24.0,0.,24.0
1979-07-29 00:04:57.450 ,6,1,0.,24.0,0.,24.0,6.,24.0,0.,24.0
1979-07-29 00:05:21.450 ,6,0,0.,24.0,0.,24.0,1.,24.0,0.,24.0
1979-07-29 00:05:45.450 ,7,1,12.,24.0,0.,24.0,2.,24.0,0.,24.0
1979-07-29 00:06:09.450 ,7,0,31.,24.0,0.,24.0,3.,24.0,0.,24.0
1979-07-29 00:06:33.450 ,7,1,28.,24.0,0.,24.0,2.,24.0,0.,24.0
1979-07-29 00:06:57.450 ,7,0,22.,24.0,0.,24.0,1.,24.0,0.,24.0
1979-07-29 00:07:21.450 ,6,1,29.,24.0,0.,24.0,5.,24.0,0.,24.0
1979-07-29 00:07:45.450 ,6,0,0.,24.0,0.,24.0,5.,24.0,0.,24.0
1979-07-29 00:08:09.450 ,5,1,0.,24.0,0.,24.0,3.,24.0,0.,24.0
1979-07-29 00:08:33.450 ,5,0,0.,24.0,0.,24.0,2.,24.0,0.,24.0
1979-07-29 00:08:57.450 ,4,1,0.,24.0,0.,24.0,4.,24.0,0.,24.0
1979-07-29 00:09:21.450 ,4,0,1.,24.0,0.,24.0,1.,24.0,0.,24.0
1979-07-29 00:09:45.450 ,3,1,0.,24.0,0.,24.0,3.,24.0,0.,24.0
1979-07-29 00:10:09.450 ,3,0,0.,24.0,0.,24.0,2.,24.0,0.,24.0
1979-07-29 00:10:33.450 ,2,1,0.,24.0,0.,24.0,3.,24.0,0.,24.0
1979-07-29 00:10:57.450 ,2,0,0.,24.0,0.,24.0,2.,24.0,0.,24.0
1979-07-29 00:11:21.450 ,1,1,0.,24.0,0.,24.0,1.,24.0,0.,24.0
1979-07-29 00:11:45.450 ,1,0,0.,24.0,0.,24.0,3.,24.0,0.,24.0
1979-07-29 00:12:09.450 ,0,1,0.,24.0,0.,24.0,4.,24.0,0.,24.0
1979-07-29 00:12:33.450 ,0,0,2.,24.0,0.,24.0,6.,24.0,0.,24.0
1979-07-29 00:12:57.450 ,0,1,0.,24.0,0.,24.0,5.,24.0,0.,24.0
1979-07-29 00:13:21.450 ,0,0,0.,24.0,0.,24.0,6.,24.0,0.,24.0
1979-07-29 00:13:45.450 ,0,0,,0,,0,,0,,0
1979-07-29 00:14:09.450 ,0,0,,0,,0,,0,,0
1979-07-29 00:20:24.450 ,0,0,,0,,0,,0,,0
1979-07-29 00:20:33.450 ,6,1,0.,24.0,0.,24.0,2.,24.0,0.,24.0
1979-07-29 00:20:57.450 ,5,1,15.,24.0,0.,24.0,0.,24.0,0.,24.0
1979-07-29 00:21:21.450 ,1,1,0.,24.0,0.,24.0,0.,24.0,0.,24.0
1979-07-29 00:21:45.450 ,0,0,,0,,0,,0,,0
1979-07-29 00:22:09.450 ,0,0,,0,,0,,0,,0
1979-07-29 00:23:28.050 ,0,0,0.,24.0,0.,24.0,0.,24.0,0.,24.0
1979-07-29 00:23:45.450 ,6,1,0.,24.0,0.,24.0,2.,24.0,0.,24.0
1979-07-29 00:24:09.450 ,5,1,10.,24.0,0.,24.0,2.,24.0,0.,24.0
1979-07-29 00:24:33.450 ,1,1,0.,24.0,0.,24.0,1.,24.0,0.,24.0
1979-07-29 00:24:57.450 ,2,1,0.,24.0,0.,24.0,0.,24.0,0.,24.0
1979-07-29 00:25:21.450 ,6,1,0.,24.0,0.,24.0,4.,24.0,0.,24.0
1979-07-29 00:25:45.450 ,5,1,20.,24.0,0.,24.0,2.,24.0,0.,24.0
1979-07-29 00:26:09.450 ,1,1,0.,24.0,0.,24.0,2.,24.0,0.,24.0
1979-07-29 00:26:33.450 ,2,1,0.,24.0,0.,24.0,4.,24.0,0.,24.0
1979-07-29 00:26:57.450 ,6,1,0.,24.0,0.,24.0,2.,24.0,0.,24.0
1979-07-29 00:27:21.450 ,5,1,13.,24.0,0.,24.0,3.,24.0,0.,24.0
1979-07-29 00:27:45.450 ,1,1,0.,24.0,1.,24.0,2.,24.0,0.,24.0
1979-07-29 00:28:09.450 ,2,1,0.,24.0,0.,24.0,1.,24.0,0.,24.0
1979-07-29 00:28:33.450 ,6,1,0.,24.0,0.,24.0,4.,24.0,0.,24.0
1979-07-29 00:28:57.450 ,0,0,,0,,0,,0,,0
1979-07-29 00:29:21.450 ,0,0,,0,,0,,0,,0
1979-07-29 00:30:39.450 ,0,0,15.,24.0,0.,24.0,2.,24.0,0.,24.0
1979-07-29 00:30:57.450 ,0,0,0.,24.0,0.,24.0,4.,24.0,0.,24.0
1979-07-29 00:31:21.450 ,4,1,0.,24.0,0.,24.0,4.,24.0,0.,24.0
1979-07-29 00:31:45.450 ,4,0,0.,24.0,0.,24.0,1.,24.0,0.,24.0
1979-07-29 00:32:09.450 ,3,1,1.,24.0,1.,24.0,2.,24.0,0.,24.0
1979-07-29 00:32:33.450 ,0,0,0.,24.0,0.,24.0,5.,24.0,0.,24.0
1979-07-29 00:32:57.450 ,2,1,,0,,0,,0,,0
1979-07-29 00:33:21.450 ,0,0,0.,24.0,0.,24.0,3.,24.0,0.,24.0
1979-07-29 00:33:45.450 ,0,0,,0,,0,,0,,0
1979-07-29 00:34:09.450 ,0,0,1.,24.0,0.,24.0,3.,24.0,0.,24.0
1979-07-29 00:34:33.450 ,0,1,1.,24.0,0.,24.0,2.,24.0,0.,24.0
1979-07-29 00:34:57.450 ,0,1,0.,24.0,0.,24.0,3.,24.0,0.,24.0
1979-07-29 00:35:21.450 ,0,1,0.,24.0,0.,24.0,3.,24.0,0.,24.0
1979-07-29 00:35:45.450 ,0,0,0.,24.0,0.,24.0,5.,24.0,0.,24.0
1979-07-29 00:36:09.450 ,0,0,0.,24.0,0.,24.0,4.,24.0,0.,24.0
1979-07-29 00:36:33.450 ,0,0,0.,24.0,0.,24.0,0.,24.0,0.,24.0
1979-07-29 00:36:57.450 ,2,1,0.,24.0,0.,24.0,4.,24.0,0.,24.0
1979-07-29 00:37:21.450 ,2,0,,0,,0,,0,,0
1979-07-29 00:37:45.450 ,0,0,0.,24.0,0.,24.0,3.,24.0,0.,24.0
1979-07-29 00:38:09.450 ,0,0,0.,24.0,0.,24.0,4.,24.0,0.,24.0
1979-07-29 00:38:33.450 ,0,0,0.,24.0,0.,24.0,1.,24.0,0.,24.0
1979-07-29 00:38:57.450 ,0,0,0.,24.0,0.,24.0,2.,24.0,0.,24.0
1979-07-29 00:39:21.450 ,0,0,0.,24.0,0.,24.0,2.,24.0,0.,24.0
1979-07-29 00:39:45.450 ,0,0,,0,,0,,0,,0
1979-07-29 00:41:04.650 ,0,0,8.,24.0,0.,24.0,1.,24.0,0.,24.0
1979-07-29 00:41:21.450 ,0,0,32.,24.0,0.,24.0,3.,24.0,0.,24.0
1979-07-29 00:41:45.450 ,7,1,,0,,0,,0,,0
1979-07-29 00:42:09.450 ,7,0,,0,,0,,0,,0
1979-07-29 00:42:33.450 ,6,1,27.,24.0,0.,24.0,3.,24.0,0.,24.0
1979-07-29 00:42:57.450 ,6,0,1.,24.0,0.,24.0,3.,24.0,0.,24.0
1979-07-29 00:43:21.450 ,5,1,0.,24.0,0.,24.0,7.,24.0,0.,24.0
1979-07-29 00:43:45.450 ,5,0,0.,24.0,0.,24.0,1.,24.0,0.,24.0
1979-07-29 00:44:09.450 ,4,1,0.,24.0,0.,24.0,0.,24.0,0.,24.0
1979-07-29 00:44:33.450 ,4,0,0.,24.0,0.,24.0,4.,24.0,0.,24.0
1979-07-29 00:44:57.450 ,3,1,0.,24.0,0.,24.0,1.,24.0,0.,24.0
1979-07-29 00:45:21.450 ,3,0,,0,,0,,0,,0
1979-07-29 00:45:45.450 ,0,0,0.,24.0,0.,24.0,3.,24.0,0.,24.0
1979-07-29 00:46:09.450 ,0,0,0.,24.0,0.,24.0,2.,24.0,0.,24.0
1979-07-29 00:46:33.450 ,0,0,0.,24.0,0.,24.0,1.,24.0,0.,24.0
1979-07-29 00:46:57.450 ,0,0,0.,24.0,0.,24.0,2.,24.0,0.,24.0
1979-07-29 00:47:21.450 ,0,1,0.,24.0,0.,24.0,4.,24.0,0.,24.0
1979-07-29 00:47:45.450 ,0,1,0.,24.0,0.,24.0,2.,24.0,0.,24.0
1979-07-29 00:48:09.450 ,0,0,0.,24.0,0.,24.0,4.,24.0,0.,24.0
1979-07-29 00:48:33.450 ,0,0,,0,,0,,0,,0
1979-07-29 00:50:13.050 ,0,0,0.,24.0,0.,24.0,4.,24.0,0.,24.0
1979-07-29 00:50:33.450 ,3,1,0.,24.0,0.,24.0,1.,24.0,0.,24.0
1979-07-29 00:50:57.450 ,0,0,,0,,0,,0,,0
1979-07-29 00:51:38.250 ,0,0,,0,,0,,0,,0
1979-07-29 00:51:45.450 ,0,0,0.,24.0,0.,24.0,6.,24.0,0.,24.0
1979-07-29 00:52:09.450 ,5,1,0.,24.0,0.,24.0,1.,24.0,0.,24.0
1979-07-29 00:52:33.450 ,5,0,0.,24.0,0.,24.0,1.,24.0,0.,24.0
1979-07-29 00:52:57.450 ,6,1,0.,24.0,0.,24.0,1.,24.0,0.,24.0
1979-07-29 00:53:21.450 ,6,0,0.,24.0,0.,24.0,3.,24.0,0.,24.0
1979-07-29 00:53:45.450 ,7,1,6.,24.0,0.,24.0,1.,24.0,0.,24.0
1979-07-29 00:54:09.450 ,7,0,28.,24.0,0.,24.0,2.,24.0,0.,24.0
1979-07-29 00:54:33.450 ,7,1,26.,24.0,0.,24.0,2.,24.0,0.,24.0
1979-07-29 00:54:57.450 ,7,0,43.,24.0,0.,24.0,4.,24.0,0.,24.0
1979-07-29 00:55:21.450 ,6,1,32.,24.0,0.,24.0,5.,24.0,0.,24.0
1979-07-29 00:55:45.450 ,6,0,0.,24.0,0.,24.0,0.,24.0,0.,24.0
1979-07-29 00:56:09.450 ,5,1,0.,24.0,0.,24.0,1.,24.0,0.,24.0
1979-07-29 00:56:33.450 ,5,0,0.,24.0,0.,24.0,3.,24.0,0.,24.0
1979-07-29 00:56:57.450 ,4,1,0.,24.0,0.,24.0,2.,24.0,0.,24.0
1979-07-29 00:57:21.450 ,4,0,0.,24.0,0.,24.0,3.,24.0,0.,24.0
1979-07-29 00:57:45.450 ,3,1,0.,24.0,0.,24.0,3.,24.0,0.,24.0
1979-07-29 00:58:09.450 ,3,0,0.,24.0,0.,24.0,1.,24.0,0.,24.0
1979-07-29 00:58:33.450 ,2,1,0.,24.0,0.,24.0,0.,24.0,0.,24.0
1979-07-29 00:58:57.450 ,2,0,0.,24.0,0.,24.0,1.,24.0,0.,24.0
1979-07-29 00:59:21.450 ,1,1,0.,24.0,0.,24.0,2.,24.0,0.,24.0
1979-07-29 00:59:45.450 ,1,0,0.,24.0,0.,24.0,3.,24.0,0.,24.0
1979-07-29 01:00:09.450 ,0,1,0.,24.0,0.,24.0,5.,24.0,0.,24.0
1979-07-29 01:00:33.450 ,0,0,0.,24.0,0.,24.0,2.,24.0,0.,24.0
1979-07-29 01:00:57.450 ,0,1,0.,24.0,0.,24.0,2.,24.0,0.,24.0
1979-07-29 01:01:21.450 ,0,0,0.,24.0,0.,24.0,2.,24.0,0.,24.0
1979-07-29 01:01:45.440 ,1,1,0.,24.0,0.,24.0,2.,24.0,0.,24.0
1979-07-29 01:02:09.450 ,1,0,0.,24.0,0.,24.0,4.,24.0,0.,24.0
1979-07-29 01:02:33.450 ,2,1,0.,24.0,0.,24.0,1.,24.0,0.,24.0
1979-07-29 01:02:57.450 ,2,0,0.,24.0,0.,24.0,2.,24.0,0.,24.0
1979-07-29 01:03:21.450 ,3,1,1.,24.0,0.,24.0,2.,24.0,0.,24.0
1979-07-29 01:03:45.450 ,3,0,0.,24.0,0.,24.0,1.,24.0,0.,24.0
1979-07-29 01:04:09.450 ,4,1,0.,24.0,0.,24.0,2.,24.0,0.,24.0
1979-07-29 01:04:33.450 ,4,0,0.,24.0,0.,24.0,3.,24.0,0.,24.0
1979-07-29 01:04:57.450 ,5,1,0.,24.0,0.,24.0,0.,24.0,0.,24.0
1979-07-29 01:05:21.450 ,5,0,0.,24.0,0.,24.0,3.,24.0,0.,24.0
1979-07-29 01:05:45.450 ,6,1,0.,24.0,0.,24.0,2.,24.0,0.,24.0
1979-07-29 01:06:09.440 ,6,0,0.,24.0,0.,24.0,5.,24.0,0.,24.0
1979-07-29 01:06:33.450 ,7,0,8.,24.0,0.,24.0,4.,24.0,0.,24.0
1979-07-29 01:06:57.450 ,7,0,35.,24.0,0.,24.0,3.,24.0,0.,24.0
1979-07-29 01:07:21.450 ,5,1,6.,24.0,0.,24.0,2.,24.0,0.,24.0
1979-07-29 01:07:45.450 ,1,1,0.,24.0,0.,24.0,0.,24.0,0.,24.0
1979-07-29 01:08:09.440 ,2,1,0.,24.0,0.,24.0,0.,24.0,0.,24.0
1979-07-29 01:08:33.450 ,6,1,0.,24.0,0.,24.0,1.,24.0,0.,24.0
1979-07-29 01:08:57.450 ,5,1,17.,24.0,0.,24.0,1.,24.0,0.,24.0
1979-07-29 01:09:21.450 ,1,1,0.,24.0,0.,24.0,1.,24.0,0.,24.0
1979-07-29 01:09:45.450 ,2,1,0.,24.0,0.,24.0,2.,24.0,0.,24.0
1979-07-29 01:10:09.450 ,6,1,0.,24.0,0.,24.0,3.,24.0,0.,24.0
1979-07-29 01:10:33.450 ,5,1,26.,24.0,1.,24.0,2.,24.0,0.,24.0
1979-07-29 01:10:57.450 ,1,1,0.,24.0,0.,24.0,2.,24.0,0.,24.0
1979-07-29 01:11:21.450 ,2,1,0.,24.0,0.,24.0,4.,24.0,0.,24.0
1979-07-29 01:11:45.450 ,6,1,0.,24.0,0.,24.0,0.,24.0,0.,24.0
1979-07-29 01:12:09.450 ,5,1,7.,24.0,0.,24.0,4.,24.0,0.,24.0
1979-07-29 01:12:33.450 ,1,1,0.,24.0,0.,24.0,3.,24.0,0.,24.0
1979-07-29 01:12:57.450 ,2,1,0.,24.0,0.,24.0,1.,24.0,0.,24.0
1979-07-29 01:13:21.450 ,6,1,0.,24.0,0.,24.0,0.,24.0,0.,24.0
1979-07-29 01:13:45.440 ,5,1,14.,24.0,0.,24.0,2.,24.0,0.,24.0
1979-07-29 01:14:09.440 ,1,1,0.,24.0,0.,24.0,1.,24.0,0.,24.0
1979-07-29 01:14:33.440 ,2,1,0.,24.0,0.,24.0,1.,24.0,0.,24.0
1979-07-29 01:14:57.440 ,6,1,0.,24.0,0.,24.0,0.,24.0,0.,24.0
1979-07-29 01:15:21.440 ,5,1,15.,24.0,0.,24.0,3.,24.0,0.,24.0
1979-07-29 01:15:45.440 ,1,1,0.,24.0,0.,24.0,1.,24.0,0.,24.0
1979-07-29 01:16:09.440 ,2,1,0.,24.0,0.,24.0,1.,24.0,0.,24.0
1979-07-29 01:16:33.440 ,6,1,0.,24.0,0.,24.0,1.,24.0,0.,24.0
1979-07-29 01:16:57.440 ,5,1,15.,24.0,0.,24.0,1.,24.0,0.,24.0
1979-07-29 01:17:21.440 ,1,1,0.,24.0,0.,24.0,2.,24.0,0.,24.0
1979-07-29 01:17:45.440 ,0,0,0.,24.0,0.,24.0,3.,24.0,0.,24.0
1979-07-29 01:18:09.440 ,0,0,0.,24.0,0.,24.0,1.,24.0,0.,24.0
1979-07-29 01:18:33.440 ,5,1,21.,24.0,0.,24.0,2.,24.0,0.,24.0
1979-07-29 01:18:57.440 ,5,0,0.,24.0,0.,24.0,3.,24.0,0.,24.0
1979-07-29 01:19:21.440 ,4,1,0.,24.0,0.,24.0,2.,24.0,0.,24.0
1979-07-29 01:19:45.440 ,4,0,0.,24.0,0.,24.0,3.,24.0,0.,24.0
1979-07-29 01:20:09.440 ,3,1,0.,24.0,0.,24.0,0.,24.0,0.,24.0
1979-07-29 01:20:33.440 ,3,0,0.,24.0,0.,24.0,2.,24.0,0.,24.0
1979-07-29 01:20:57.440 ,2,1,0.,24.0,0.,24.0,1.,24.0,0.,24.0
1979-07-29 01:21:21.440 ,2,0,0.,24.0,0.,24.0,2.,24.0,0.,24.0
1979-07-29 01:21:45.440 ,1,1,0.,24.0,1.,24.0,1.,24.0,0.,24.0
1979-07-29 01:22:09.440 ,1,0,0.,24.0,0.,24.0,0.,24.0,0.,24.0
1979-07-29 01:22:33.440 ,0,1,0.,24.0,0.,24.0,1.,24.0,0.,24.0
1979-07-29 01:22:57.440 ,0,0,0.,24.0,0.,24.0,0.,24.0,0.,24.0
1979-07-29 01:23:21.440 ,0,1,0.,24.0,0.,24.0,0.,24.0,0.,24.0
1979-07-29 01:23:45.440 ,0,0,0.,24.0,0.,24.0,1.,24.0,0.,24.0
1979-07-29 01:24:09.440 ,1,1,0.,24.0,0.,24.0,1.,24.0,0.,24.0
1979-07-29 01:24:33.440 ,1,0,0.,24.0,0.,24.0,3.,24.0,0.,24.0
1979-07-29 01:24:57.440 ,2,1,0.,24.0,0.,24.0,3.,24.0,0.,24.0
1979-07-29 01:25:21.440 ,2,0,0.,24.0,0.,24.0,1.,24.0,0.,24.0
1979-07-29 01:25:45.440 ,3,1,0.,24.0,1.,24.0,1.,24.0,0.,24.0
1979-07-29 01:26:09.440 ,3,0,0.,24.0,0.,24.0,0.,24.0,0.,24.0
1979-07-29 01:26:33.440 ,4,1,0.,24.0,0.,24.0,2.,24.0,0.,24.0
1979-07-29 01:26:57.440 ,4,0,0.,24.0,0.,24.0,1.,24.0,0.,24.0
1979-07-29 01:27:21.440 ,5,1,0.,24.0,0.,24.0,1.,24.0,0.,24.0
1979-07-29 01:27:45.440 ,5,0,0.,24.0,0.,24.0,3.,24.0,0.,24.0
1979-07-29 01:28:09.440 ,6,1,0.,24.0,0.,24.0,1.,24.0,0.,24.0
1979-07-29 01:28:33.440 ,6,0,0.,24.0,0.,24.0,2.,24.0,0.,24.0
1979-07-29 01:28:57.440 ,7,1,4.,24.0,0.,24.0,6.,24.0,0.,24.0
1979-07-29 01:29:21.440 ,7,0,32.,24.0,0.,24.0,1.,24.0,0.,24.0
1979-07-29 01:29:45.440 ,7,1,24.,24.0,0.,24.0,0.,24.0,0.,24.0
1979-07-29 01:30:09.440 ,7,0,32.,24.0,0.,24.0,0.,24.0,0.,24.0
1979-07-29 01:30:33.440 ,6,1,18.,24.0,0.,24.0,0.,24.0,0.,24.0
1979-07-29 01:30:57.440 ,6,0,0.,24.0,0.,24.0,0.,24.0,0.,24.0
1979-07-29 01:31:21.440 ,5,1,0.,24.0,0.,24.0,0.,24.0,0.,24.0
1979-07-29 01:31:45.440 ,5,0,0.,24.0,0.,24.0,0.,24.0,0.,24.0
1979-07-29 01:32:09.440 ,4,1,0.,24.0,0.,24.0,1.,24.0,0.,24.0
1979-07-29 01:32:33.440 ,4,0,0.,24.0,0.,24.0,1.,24.0,0.,24.0
1979-07-29 01:32:57.440 ,3,1,0.,24.0,0.,24.0,2.,24.0,0.,24.0
1979-07-29 01:33:21.440 ,3,0,0.,24.0,0.,24.0,2.,24.0,0.,24.0
1979-07-29 01:33:45.440 ,2,1,0.,24.0,0.,24.0,3.,24.0,0.,24.0
1979-07-29 01:34:09.440 ,2,0,0.,24.0,0.,24.0,2.,24.0,0.,24.0
1979-07-29 01:34:33.440 ,1,1,0.,24.0,0.,24.0,1.,24.0,0.,24.0
1979-07-29 01:34:57.440 ,1,0,0.,24.0,0.,24.0,0.,24.0,0.,24.0
1979-07-29 01:35:21.440 ,0,1,0.,24.0,0.,24.0,2.,24.0,0.,24.0
1979-07-29 01:35:45.440 ,0,0,0.,24.0,1.,24.0,2.,24.0,0.,24.0
1979-07-29 01:36:09.440 ,0,1,0.,24.0,0.,24.0,3.,24.0,0.,24.0
1979-07-29 01:36:33.440 ,0,0,0.,24.0,0.,24.0,1.,24.0,0.,24.0
1979-07-29 01:36:57.440 ,1,1,0.,24.0,0.,24.0,2.,24.0,0.,24.0
1979-07-29 01:37:21.440 ,1,0,0.,24.0,0.,24.0,2.,24.0,0.,24.0
1979-07-29 01:37:45.440 ,2,1,0.,24.0,0.,24.0,1.,24.0,0.,24.0
1979-07-29 01:38:09.440 ,2,0,0.,24.0,0.,24.0,1.,24.0,0.,24.0
1979-07-29 01:38:33.440 ,3,1,0.,24.0,0.,24.0,1.,24.0,0.,24.0
1979-07-29 01:38:57.440 ,3,0,0.,24.0,0.,24.0,1.,24.0,0.,24.0
1979-07-29 01:39:21.440 ,4,1,0.,24.0,0.,24.0,2.,24.0,0.,24.0
1979-07-29 01:39:45.440 ,4,0,0.,24.0,0.,24.0,1.,24.0,0.,24.0
1979-07-29 01:40:09.440 ,5,1,0.,24.0,0.,24.0,2.,24.0,0.,24.0
1979-07-29 01:40:33.440 ,5,0,0.,24.0,0.,24.0,3.,24.0,0.,24.0
1979-07-29 01:40:57.440 ,6,1,0.,24.0,0.,24.0,2.,24.0,0.,24.0
1979-07-29 01:41:21.440 ,6,0,0.,24.0,0.,24.0,1.,24.0,0.,24.0
1979-07-29 01:41:45.440 ,7,1,7.,24.0,1.,24.0,0.,24.0,0.,24.0
1979-07-29 01:42:09.440 ,7,0,24.,24.0,0.,24.0,2.,24.0,0.,24.0
1979-07-29 01:42:33.440 ,7,1,27.,24.0,0.,24.0,3.,24.0,0.,24.0
1979-07-29 01:42:57.440 ,7,0,26.,24.0,0.,24.0,2.,24.0,0.,24.0
1979-07-29 01:43:21.440 ,6,1,32.,24.0,0.,24.0,1.,24.0,0.,24.0
1979-07-29 01:43:45.440 ,0,0,0.,24.0,0.,24.0,2.,24.0,0.,24.0
1979-07-29 01:44:09.440 ,5,1,0.,24.0,0.,24.0,1.,24.0,0.,24.0
1979-07-29 01:44:33.440 ,5,0,0.,24.0,0.,24.0,4.,24.0,0.,24.0
1979-07-29 01:44:57.440 ,4,1,0.,24.0,0.,24.0,1.,24.0,0.,24.0
1979-07-29 01:45:21.440 ,4,0,0.,24.0,0.,24.0,2.,24.0,0.,24.0
1979-07-29 01:45:45.440 ,3,1,0.,24.0,0.,24.0,3.,24.0,0.,24.0
1979-07-29 01:46:09.440 ,3,0,2.,24.0,0.,24.0,3.,24.0,0.,24.0
1979-07-29 01:46:33.440 ,2,1,0.,24.0,0.,24.0,1.,24.0,0.,24.0
1979-07-29 01:46:57.440 ,2,0,0.,24.0,1.,24.0,1.,24.0,0.,24.0
1979-07-29 01:47:21.440 ,1,1,0.,24.0,1.,24.0,2.,24.0,0.,24.0
1979-07-29 01:47:45.440 ,1,0,0.,24.0,0.,24.0,2.,24.0,0.,24.0
1979-07-29 01:48:09.440 ,0,1,0.,24.0,0.,24.0,3.,24.0,0.,24.0
1979-07-29 01:48:33.440 ,0,0,0.,24.0,1.,24.0,3.,24.0,0.,24.0
1979-07-29 01:48:57.440 ,0,1,0.,24.0,0.,24.0,4.,24.0,0.,24.0
1979-07-29 01:49:21.440 ,0,0,0.,24.0,0.,24.0,2.,24.0,0.,24.0
1979-07-29 01:49:45.440 ,1,1,0.,24.0,0.,24.0,2.,24.0,0.,24.0
1979-07-29 01:50:09.440 ,1,0,0.,24.0,0.,24.0,0.,24.0,0.,24.0
1979-07-29 01:50:33.440 ,2,1,0.,24.0,0.,24.0,2.,24.0,0.,24.0
1979-07-29 01:50:57.440 ,2,0,0.,24.0,0.,24.0,1.,24.0,0.,24.0
1979-07-29 01:51:21.440 ,3,1,0.,24.0,0.,24.0,1.,24.0,0.,24.0
1979-07-29 01:51:45.440 ,3,0,0.,24.0,0.,24.0,0.,24.0,0.,24.0
1979-07-29 01:52:09.440 ,4,1,0.,24.0,0.,24.0,1.,24.0,0.,24.0
1979-07-29 01:52:33.440 ,4,0,0.,24.0,0.,24.0,0.,24.0,0.,24.0
1979-07-29 01:52:57.440 ,5,1,0.,24.0,0.,24.0,0.,24.0,0.,24.0
1979-07-29 01:53:21.440 ,5,0,0.,24.0,0.,24.0,2.,24.0,0.,24.0
1979-07-29 01:53:45.440 ,6,1,0.,24.0,0.,24.0,3.,24.0,0.,24.0
1979-07-29 01:54:09.440 ,6,0,0.,24.0,0.,24.0,2.,24.0,0.,24.0
1979-07-29 01:54:33.440 ,7,0,6.,24.0,0.,24.0,3.,24.0,0.,24.0
1979-07-29 01:54:57.440 ,7,0,37.,24.0,0.,24.0,5.,24.0,0.,24.0
1979-07-29 01:55:21.440 ,5,1,13.,24.0,0.,24.0,3.,24.0,0.,24.0
1979-07-29 01:55:45.440 ,1,1,0.,24.0,0.,24.0,1.,24.0,0.,24.0
1979-07-29 01:56:09.440 ,2,1,0.,24.0,0.,24.0,2.,24.0,0.,24.0
1979-07-29 01:56:33.440 ,6,1,0.,24.0,0.,24.0,2.,24.0,0.,24.0
1979-07-29 01:56:57.440 ,5,1,15.,24.0,0.,24.0,1.,24.0,0.,24.0
1979-07-29 01:57:21.440 ,1,1,0.,24.0,0.,24.0,0.,24.0,0.,24.0
1979-07-29 01:57:45.440 ,2,1,0.,24.0,0.,24.0,2.,24.0,0.,24.0
1979-07-29 01:58:09.440 ,6,1,0.,24.0,0.,24.0,1.,24.0,0.,24.0
1979-07-29 01:58:33.440 ,5,1,22.,24.0,0.,24.0,6.,24.0,0.,24.0
1979-07-29 01:58:57.440 ,1,1,0.,24.0,0.,24.0,2.,24.0,0.,24.0
1979-07-29 01:59:21.440 ,2,1,0.,24.0,0.,24.0,0.,24.0,0.,24.0
1979-07-29 01:59:45.440 ,6,1,0.,24.0,0.,24.0,2.,24.0,0.,24.0
1979-07-29 02:00:09.440 ,5,1,16.,24.0,0.,24.0,1.,24.0,0.,24.0
1979-07-29 02:00:33.440 ,1,1,0.,24.0,0.,24.0,2.,24.0,0.,24.0
1979-07-29 02:00:57.440 ,2,1,0.,24.0,0.,24.0,3.,24.0,0.,24.0
1979-07-29 02:01:21.440 ,6,1,0.,24.0,0.,24.0,1.,24.0,0.,24.0
1979-07-29 02:01:45.440 ,5,1,19.,24.0,0.,24.0,1.,24.0,0.,24.0
1979-07-29 02:02:09.440 ,1,1,0.,24.0,0.,24.0,1.,24.0,0.,24.0
1979-07-29 02:02:33.440 ,2,1,0.,24.0,0.,24.0,2.,24.0,0.,24.0
1979-07-29 02:02:57.440 ,6,1,0.,24.0,0.,24.0,3.,24.0,0.,24.0
1979-07-29 02:03:21.440 ,5,1,21.,24.0,0.,24.0,0.,24.0,0.,24.0
1979-07-29 02:03:45.440 ,1,1,0.,24.0,0.,24.0,0.,24.0,0.,24.0
1979-07-29 02:04:09.440 ,2,1,0.,24.0,0.,24.0,1.,24.0,0.,24.0
1979-07-29 02:04:33.440 ,6,1,0.,24.0,0.,24.0,0.,24.0,0.,24.0
1979-07-29 02:04:57.440 ,5,1,8.,24.0,0.,24.0,0.,24.0,0.,24.0
1979-07-29 02:05:21.440 ,1,1,0.,24.0,0.,24.0,2.,24.0,0.,24.0
1979-07-29 02:05:45.440 ,0,0,0.,24.0,0.,24.0,0.,24.0,0.,24.0
1979-07-29 02:06:09.440 ,0,0,0.,24.0,0.,24.0,1.,24.0,0.,24.0
1979-07-29 02:06:33.440 ,5,1,13.,24.0,0.,24.0,1.,24.0,0.,24.0
1979-07-29 02:06:57.440 ,5,0,0.,24.0,0.,24.0,1.,24.0,0.,24.0
1979-07-29 02:07:21.440 ,4,1,0.,24.0,0.,24.0,2.,24.0,0.,24.0
1979-07-29 02:07:45.440 ,4,0,0.,24.0,0.,24.0,0.,24.0,0.,24.0
1979-07-29 02:08:09.440 ,3,1,0.,24.0,0.,24.0,3.,24.0,0.,24.0
1979-07-29 02:08:33.440 ,3,0,0.,24.0,0.,24.0,1.,24.0,0.,24.0
1979-07-29 02:08:57.440 ,2,1,0.,24.0,0.,24.0,1.,24.0,0.,24.0
1979-07-29 02:09:21.440 ,2,0,0.,24.0,0.,24.0,2.,24.0,0.,24.0
1979-07-29 02:09:45.440 ,1,1,0.,24.0,0.,24.0,2.,24.0,0.,24.0
1979-07-29 02:10:09.440 ,1,0,0.,24.0,0.,24.0,1.,24.0,0.,24.0
1979-07-29 02:10:33.440 ,0,1,0.,24.0,0.,24.0,1.,24.0,0.,24.0
1979-07-29 02:10:57.440 ,0,0,1.,24.0,0.,24.0,0.,24.0,0.,24.0
1979-07-29 02:11:21.440 ,0,1,0.,24.0,0.,24.0,2.,24.0,0.,24.0
1979-07-29 02:11:45.440 ,0,0,1.,24.0,0.,24.0,1.,24.0,0.,24.0
1979-07-29 02:12:09.440 ,1,1,0.,24.0,0.,24.0,0.,24.0,0.,24.0
1979-07-29 02:12:33.440 ,1,0,0.,24.0,0.,24.0,0.,24.0,0.,24.0
1979-07-29 02:12:57.440 ,2,1,0.,24.0,0.,24.0,0.,24.0,0.,24.0
1979-07-29 02:13:21.440 ,2,0,0.,24.0,0.,24.0,1.,24.0,0.,24.0
1979-07-29 02:13:45.440 ,3,1,1.,24.0,0.,24.0,3.,24.0,0.,24.0
1979-07-29 02:14:09.440 ,3,0,0.,24.0,0.,24.0,2.,24.0,0.,24.0
1979-07-29 02:14:33.440 ,4,1,0.,24.0,0.,24.0,0.,24.0,0.,24.0
1979-07-29 02:14:57.440 ,4,0,0.,24.0,0.,24.0,1.,24.0,0.,24.0
1979-07-29 02:15:21.440 ,5,1,0.,24.0,0.,24.0,0.,24.0,0.,24.0
1979-07-29 02:15:45.440 ,5,0,0.,24.0,0.,24.0,0.,24.0,0.,24.0
1979-07-29 02:16:09.440 ,6,1,0.,24.0,0.,24.0,3.,24.0,0.,24.0
1979-07-29 02:16:33.440 ,6,0,0.,24.0,0.,24.0,2.,24.0,0.,24.0
1979-07-29 02:16:57.440 ,7,1,11.,24.0,0.,24.0,1.,24.0,0.,24.0
1979-07-29 02:17:21.440 ,7,0,22.,24.0,0.,24.0,2.,24.0,0.,24.0
1979-07-29 02:17:45.440 ,7,1,34.,24.0,0.,24.0,2.,24.0,0.,24.0
1979-07-29 02:18:09.440 ,7,0,36.,24.0,0.,24.0,1.,24.0,0.,24.0
1979-07-29 02:18:33.440 ,6,1,19.,24.0,0.,24.0,1.,24.0,0.,24.0
1979-07-29 02:18:57.440 ,6,0,0.,24.0,0.,24.0,1.,24.0,0.,24.0
1979-07-29 02:19:21.440 ,5,1,1.,24.0,0.,24.0,1.,24.0,0.,24.0
1979-07-29 02:19:45.440 ,5,0,0.,24.0,0.,24.0,3.,24.0,0.,24.0
1979-07-29 02:20:09.440 ,4,1,0.,24.0,0.,24.0,0.,24.0,0.,24.0
1979-07-29 02:20:33.440 ,4,0,0.,24.0,0.,24.0,3.,24.0,0.,24.0
1979-07-29 02:20:57.440 ,3,1,0.,24.0,0.,24.0,0.,24.0,0.,24.0
1979-07-29 02:21:21.440 ,3,0,0.,24.0,0.,24.0,4.,24.0,0.,24.0
1979-07-29 02:21:45.440 ,2,1,0.,24.0,0.,24.0,2.,24.0,0.,24.0
1979-07-29 02:22:09.440 ,2,0,0.,24.0,0.,24.0,0.,24.0,0.,24.0
1979-07-29 02:22:33.440 ,1,1,0.,24.0,0.,24.0,2.,24.0,0.,24.0
1979-07-29 02:22:57.440 ,1,0,0.,24.0,0.,24.0,3.,24.0,0.,24.0
1979-07-29 02:23:21.440 ,0,1,1.,24.0,0.,24.0,0.,24.0,0.,24.0
1979-07-29 02:23:45.440 ,0,0,0.,24.0,0.,24.0,1.,24.0,0.,24.0
1979-07-29 02:24:09.440 ,0,1,0.,24.0,0.,24.0,4.,24.0,0.,24.0
1979-07-29 02:24:33.440 ,0,0,0.,24.0,0.,24.0,0.,24.0,0.,24.0
1979-07-29 02:24:57.440 ,1,1,0.,24.0,0.,24.0,2.,24.0,0.,24.0
1979-07-29 02:25:21.440 ,1,0,0.,24.0,0.,24.0,1.,24.0,0.,24.0
1979-07-29 02:25:45.440 ,2,1,0.,24.0,0.,24.0,2.,24.0,0.,24.0
1979-07-29 02:26:09.440 ,2,0,0.,24.0,0.,24.0,0.,24.0,0.,24.0
1979-07-29 02:26:33.440 ,3,1,1.,24.0,0.,24.0,1.,24.0,0.,24.0
1979-07-29 02:26:57.440 ,3,0,0.,24.0,0.,24.0,0.,24.0,0.,24.0
1979-07-29 02:27:21.440 ,4,1,0.,24.0,0.,24.0,1.,24.0,0.,24.0
1979-07-29 02:27:45.440 ,4,0,0.,24.0,0.,24.0,2.,24.0,0.,24.0
1979-07-29 02:28:09.440 ,5,1,0.,24.0,0.,24.0,1.,24.0,0.,24.0
1979-07-29 02:28:33.440 ,5,0,0.,24.0,0.,24.0,1.,24.0,0.,24.0
1979-07-29 02:28:57.440 ,6,1,0.,24.0,0.,24.0,2.,24.0,0.,24.0
1979-07-29 02:29:21.440 ,6,0,0.,24.0,0.,24.0,2.,24.0,0.,24.0
1979-07-29 02:29:45.440 ,7,1,4.,24.0,0.,24.0,1.,24.0,0.,24.0
1979-07-29 02:30:09.440 ,7,0,31.,24.0,0.,24.0,3.,24.0,0.,24.0
1979-07-29 02:30:33.440 ,7,1,33.,24.0,0.,24.0,0.,24.0,0.,24.0
1979-07-29 02:30:57.440 ,7,0,31.,24.0,0.,24.0,2.,24.0,0.,24.0
1979-07-29 02:31:21.440 ,6,1,22.,24.0,0.,24.0,1.,24.0,0.,24.0
1979-07-29 02:31:45.440 ,6,0,0.,24.0,0.,24.0,3.,24.0,0.,24.0
1979-07-29 02:32:09.440 ,0,0,0.,24.0,0.,24.0,0.,24.0,0.,24.0
1979-07-29 02:32:33.440 ,0,0,0.,24.0,0.,24.0,3.,24.0,0.,24.0
1979-07-29 02:32:57.440 ,4,1,0.,24.0,0.,24.0,3.,24.0,0.,24.0
1979-07-29 02:33:21.440 ,4,0,0.,24.0,0.,24.0,1.,24.0,0.,24.0
1979-07-29 02:33:45.440 ,3,1,0.,24.0,0.,24.0,0.,24.0,0.,24.0
1979-07-29 02:34:09.440 ,3,0,0.,24.0,1.,24.0,0.,24.0,0.,24.0
1979-07-29 02:34:33.440 ,2,1,1.,24.0,0.,24.0,0.,24.0,0.,24.0
1979-07-29 02:34:57.440 ,2,0,0.,24.0,0.,24.0,2.,24.0,0.,24.0
1979-07-29 02:35:21.440 ,1,1,1.,24.0,0.,24.0,3.,24.0,0.,24.0
1979-07-29 02:35:45.440 ,1,0,0.,24.0,1.,24.0,0.,24.0,0.,24.0
1979-07-29 02:36:09.440 ,0,1,0.,24.0,0.,24.0,0.,24.0,0.,24.0
1979-07-29 02:36:33.440 ,0,0,0.,24.0,0.,24.0,1.,24.0,0.,24.0
1979-07-29 02:36:57.440 ,0,1,0.,24.0,0.,24.0,1.,24.0,0.,24.0
1979-07-29 02:37:21.440 ,0,0,0.,24.0,0.,24.0,1.,24.0,0.,24.0
1979-07-29 02:37:45.440 ,1,1,0.,24.0,0.,24.0,2.,24.0,0.,24.0
1979-07-29 02:38:09.440 ,1,0,0.,24.0,0.,24.0,3.,24.0,0.,24.0
1979-07-29 02:38:33.440 ,2,1,0.,24.0,0.,24.0,3.,24.0,0.,24.0
1979-07-29 02:38:57.440 ,2,0,0.,24.0,0.,24.0,0.,24.0,0.,24.0
1979-07-29 02:39:21.440 ,3,1,0.,24.0,0.,24.0,2.,24.0,0.,24.0
1979-07-29 02:39:45.440 ,3,0,0.,24.0,0.,24.0,2.,24.0,0.,24.0
1979-07-29 02:40:09.440 ,4,1,0.,24.0,0.,24.0,0.,24.0,0.,24.0
1979-07-29 02:40:33.440 ,4,0,0.,24.0,0.,24.0,1.,24.0,0.,24.0
1979-07-29 02:40:57.440 ,5,1,0.,24.0,0.,24.0,0.,24.0,0.,24.0
1979-07-29 02:41:21.440 ,5,0,0.,24.0,0.,24.0,2.,24.0,0.,24.0
1979-07-29 02:41:45.440 ,0,0,0.,24.0,0.,24.0,2.,24.0,0.,24.0
1979-07-29 02:42:09.440 ,0,0,0.,24.0,0.,24.0,6.,24.0,0.,24.0
1979-07-29 02:42:33.440 ,7,0,4.,24.0,0.,24.0,1.,24.0,0.,24.0
1979-07-29 02:42:57.440 ,7,0,22.,24.0,0.,24.0,3.,24.0,0.,24.0
1979-07-29 02:43:21.440 ,5,1,8.,24.0,0.,24.0,0.,24.0,0.,24.0
1979-07-29 02:43:45.440 ,1,1,0.,24.0,0.,24.0,1.,24.0,0.,24.0
1979-07-29 02:44:09.440 ,2,1,0.,24.0,0.,24.0,1.,24.0,0.,24.0
1979-07-29 02:44:33.440 ,6,1,0.,24.0,0.,24.0,0.,24.0,0.,24.0
1979-07-29 02:44:57.440 ,5,1,15.,24.0,0.,24.0,4.,24.0,0.,24.0
1979-07-29 02:45:21.440 ,1,1,0.,24.0,0.,24.0,1.,24.0,0.,24.0